RPA8485 KPHX-KSAN

Flight info

Callsign RPA8485
Flight time 0h 44m
Altitude 30000
Route FYRBD1 MOHAK J2 HOGGZ LUCKI1
Aircraft E75L/M-SDE3GILORVW/S

Departure

Time 2026-05-07 19:33
Airport Phoenix Sky Harbor International Airport (KPHX)

Arrival

Time 2026-05-07 20:17
Airport San Diego International Airport (KSAN)
Time Latitude Longitude Altitude Speed Heading
2026-05-07 19:21 33.43726 -112.00240 1134 ft 0 kts 90°
2026-05-07 19:24 33.43726 -112.00253 1133 ft 2 kts 90°
2026-05-07 19:24 33.43726 -112.00271 1133 ft 2 kts 90°
2026-05-07 19:25 33.43726 -112.00288 1132 ft 1 kts 90°
2026-05-07 19:25 33.43726 -112.00296 1133 ft 1 kts 72°
2026-05-07 19:25 33.43726 -112.00298 1133 ft 0 kts 71°
2026-05-07 19:27 33.43735 -112.00303 1134 ft 5 kts 269°
2026-05-07 19:27 33.43669 -112.00368 1134 ft 18 kts 202°
2026-05-07 19:27 33.43540 -112.00382 1132 ft 19 kts 180°
2026-05-07 19:28 33.43399 -112.00383 1131 ft 20 kts 180°
2026-05-07 19:28 33.43256 -112.00384 1129 ft 20 kts 173°
2026-05-07 19:28 33.43215 -112.00247 1128 ft 18 kts 90°
2026-05-07 19:28 33.43215 -112.00088 1128 ft 19 kts 90°
2026-05-07 19:29 33.43214 -111.99928 1128 ft 19 kts 90°
2026-05-07 19:29 33.43213 -111.99764 1127 ft 20 kts 90°
2026-05-07 19:29 33.43211 -111.99597 1128 ft 20 kts 91°
2026-05-07 19:29 33.43214 -111.99433 1129 ft 18 kts 87°
2026-05-07 19:30 33.43200 -111.99355 1130 ft 5 kts 156°
2026-05-07 19:30 33.43165 -111.99345 1131 ft 5 kts 178°
2026-05-07 19:30 33.43152 -111.99345 1131 ft 0 kts 178°
2026-05-07 19:30 33.43147 -111.99345 1131 ft 0 kts 178°
2026-05-07 19:31 33.43139 -111.99344 1131 ft 1 kts 178°
2026-05-07 19:31 33.43127 -111.99344 1131 ft 1 kts 178°
2026-05-07 19:31 33.43115 -111.99345 1130 ft 1 kts 224°
2026-05-07 19:31 33.43106 -111.99477 1129 ft 23 kts 265°
2026-05-07 19:32 33.43103 -111.99897 1128 ft 79 kts 270°
2026-05-07 19:32 33.43104 -112.00758 1130 ft 127 kts 270°
2026-05-07 19:32 33.43104 -112.01984 1157 ft 160 kts 270°
2026-05-07 19:32 33.43100 -112.03393 1418 ft 175 kts 269°
2026-05-07 19:33 33.43189 -112.04823 1958 ft 172 kts 279°
2026-05-07 19:33 33.43422 -112.06201 2488 ft 161 kts 284°
2026-05-07 19:33 33.43711 -112.07542 2920 ft 171 kts 287°
2026-05-07 19:33 33.43769 -112.09006 3202 ft 194 kts 252°
2026-05-07 19:34 33.43000 -112.10458 3492 ft 215 kts 236°
2026-05-07 19:34 33.42164 -112.12017 3873 ft 230 kts 240°
2026-05-07 19:34 33.41371 -112.13753 4286 ft 245 kts 244°
2026-05-07 19:34 33.40581 -112.15661 4528 ft 270 kts 245°
2026-05-07 19:35 33.39435 -112.17523 4922 ft 287 kts 216°
2026-05-07 19:35 33.37594 -112.18380 5586 ft 288 kts 184°
2026-05-07 19:35 33.35641 -112.18046 6421 ft 280 kts 154°
2026-05-07 19:35 33.33880 -112.17069 7103 ft 283 kts 162°
2026-05-07 19:36 33.31972 -112.16460 7694 ft 289 kts 163°
2026-05-07 19:36 33.29951 -112.16239 8260 ft 297 kts 191°
2026-05-07 19:36 33.28075 -112.17311 8860 ft 301 kts 223°
2026-05-07 19:36 33.26751 -112.19217 9551 ft 301 kts 233°
2026-05-07 19:37 33.25475 -112.21223 10186 ft 304 kts 233°
2026-05-07 19:37 33.24181 -112.23247 10757 ft 309 kts 233°
2026-05-07 19:37 33.22856 -112.25311 11233 ft 317 kts 233°
2026-05-07 19:37 33.21491 -112.27434 11623 ft 327 kts 233°
2026-05-07 19:38 33.20085 -112.29618 12056 ft 335 kts 233°
2026-05-07 19:38 33.18648 -112.31850 12491 ft 343 kts 233°
2026-05-07 19:38 33.17167 -112.34148 13028 ft 348 kts 233°
2026-05-07 19:38 33.15693 -112.36435 13607 ft 350 kts 233°
2026-05-07 19:39 33.14207 -112.38738 14179 ft 353 kts 233°
2026-05-07 19:39 33.12695 -112.41080 14698 ft 356 kts 233°
2026-05-07 19:39 33.11183 -112.43419 15196 ft 360 kts 233°
2026-05-07 19:39 33.09632 -112.45820 15668 ft 365 kts 232°
2026-05-07 19:40 33.08076 -112.48225 16134 ft 370 kts 233°
2026-05-07 19:40 33.06490 -112.50675 16624 ft 374 kts 232°
2026-05-07 19:40 33.04900 -112.53129 17142 ft 377 kts 232°
2026-05-07 19:40 33.03272 -112.55641 17595 ft 381 kts 232°
2026-05-07 19:41 33.01640 -112.58158 18058 ft 385 kts 232°
2026-05-07 19:41 32.99988 -112.60702 18523 ft 389 kts 233°
2026-05-07 19:41 32.98333 -112.63251 19001 ft 393 kts 233°
2026-05-07 19:41 32.96659 -112.65845 19431 ft 397 kts 235°
2026-05-07 19:42 32.95513 -112.68851 19814 ft 398 kts 259°
2026-05-07 19:42 32.95024 -112.72113 20278 ft 400 kts 263°
2026-05-07 19:42 32.94581 -112.75364 20757 ft 402 kts 263°
2026-05-07 19:42 32.94139 -112.78633 21207 ft 404 kts 264°
2026-05-07 19:43 32.93689 -112.81965 21615 ft 408 kts 264°
2026-05-07 19:43 32.93235 -112.85324 22036 ft 412 kts 264°
2026-05-07 19:43 32.92777 -112.88712 22466 ft 415 kts 264°
2026-05-07 19:43 32.92315 -112.92115 22863 ft 418 kts 264°
2026-05-07 19:44 32.91850 -112.95539 23266 ft 421 kts 264°
2026-05-07 19:44 32.91379 -112.98992 23692 ft 424 kts 264°
2026-05-07 19:44 32.90907 -113.02452 24128 ft 425 kts 264°
2026-05-07 19:44 32.90431 -113.05929 24560 ft 427 kts 264°
2026-05-07 19:45 32.89949 -113.09444 24954 ft 430 kts 265°
2026-05-07 19:45 32.89463 -113.12980 25288 ft 433 kts 264°
2026-05-07 19:45 32.88973 -113.16538 25641 ft 435 kts 265°
2026-05-07 19:45 32.88483 -113.20092 26049 ft 436 kts 265°
2026-05-07 19:46 32.87994 -113.23623 26435 ft 437 kts 265°
2026-05-07 19:46 32.87500 -113.27196 26786 ft 439 kts 265°
2026-05-07 19:46 32.87000 -113.30793 27113 ft 442 kts 265°
2026-05-07 19:46 32.86493 -113.34434 27451 ft 444 kts 265°
2026-05-07 19:47 32.85984 -113.38082 27728 ft 447 kts 265°
2026-05-07 19:47 32.85471 -113.41750 28086 ft 448 kts 265°
2026-05-07 19:47 32.84954 -113.45443 28416 ft 450 kts 265°
2026-05-07 19:47 32.84441 -113.49099 28719 ft 452 kts 265°
2026-05-07 19:48 32.83923 -113.52776 29024 ft 454 kts 265°
2026-05-07 19:48 32.83398 -113.56496 29311 ft 456 kts 265°
2026-05-07 19:48 32.82875 -113.60196 29634 ft 457 kts 265°
2026-05-07 19:48 32.82344 -113.63944 29920 ft 459 kts 265°
2026-05-07 19:49 32.81266 -113.71539 29956 ft 474 kts 265°
2026-05-07 19:49 32.80152 -113.79341 29968 ft 487 kts 265°
2026-05-07 19:50 32.79018 -113.87247 29965 ft 487 kts 265°
2026-05-07 19:50 32.77875 -113.95191 29959 ft 486 kts 265°
2026-05-07 19:51 32.77523 -114.03081 29967 ft 480 kts 275°
2026-05-07 19:51 32.77631 -114.10937 29978 ft 476 kts 278°
2026-05-07 19:52 32.77964 -114.18760 29982 ft 475 kts 278°
2026-05-07 19:52 32.78278 -114.26616 29990 ft 474 kts 278°
2026-05-07 19:53 32.78581 -114.34390 29986 ft 473 kts 277°
2026-05-07 19:53 32.79650 -114.41948 29985 ft 462 kts 294°
2026-05-07 19:54 32.81654 -114.49165 29972 ft 462 kts 294°
2026-05-07 19:54 32.83659 -114.56460 29971 ft 460 kts 294°
2026-05-07 19:55 32.85639 -114.63680 29971 ft 460 kts 293°
2026-05-07 19:55 32.87502 -114.70997 29960 ft 463 kts 285°
2026-05-07 19:56 32.87832 -114.78749 29976 ft 476 kts 272°
2026-05-07 19:56 32.87628 -114.86698 29957 ft 489 kts 272°
2026-05-07 19:57 32.87442 -114.94898 29948 ft 500 kts 272°
2026-05-07 19:57 32.87249 -115.03169 29934 ft 500 kts 272°
2026-05-07 19:58 32.87151 -115.07334 29434 ft 500 kts 272°
2026-05-07 19:58 32.87052 -115.11453 28903 ft 495 kts 272°
2026-05-07 19:58 32.86953 -115.15512 28361 ft 488 kts 272°
2026-05-07 19:58 32.86854 -115.19528 27822 ft 485 kts 272°
2026-05-07 19:59 32.86756 -115.23463 27295 ft 481 kts 272°
2026-05-07 19:59 32.86655 -115.27463 26764 ft 477 kts 272°
2026-05-07 19:59 32.86555 -115.31391 26243 ft 474 kts 272°
2026-05-07 19:59 32.86319 -115.35270 25727 ft 474 kts 265°
2026-05-07 20:00 32.85788 -115.39107 25212 ft 472 kts 264°
2026-05-07 20:00 32.85251 -115.42939 24691 ft 470 kts 264°
2026-05-07 20:00 32.84714 -115.46770 24155 ft 466 kts 264°
2026-05-07 20:00 32.84145 -115.50536 23644 ft 464 kts 263°
2026-05-07 20:01 32.83531 -115.54296 23126 ft 461 kts 263°
2026-05-07 20:01 32.82925 -115.58007 22626 ft 457 kts 263°
2026-05-07 20:01 32.82324 -115.61687 22114 ft 454 kts 263°
2026-05-07 20:01 32.81721 -115.65366 21461 ft 451 kts 262°
2026-05-07 20:02 32.81127 -115.68980 20973 ft 446 kts 262°
2026-05-07 20:02 32.80537 -115.72573 20479 ft 443 kts 262°
2026-05-07 20:02 32.79945 -115.76164 19986 ft 440 kts 262°
2026-05-07 20:02 32.79357 -115.79728 19491 ft 437 kts 262°
2026-05-07 20:03 32.78778 -115.83225 19000 ft 434 kts 262°
2026-05-07 20:03 32.78368 -115.86732 18538 ft 429 kts 268°
2026-05-07 20:03 32.78111 -115.90261 18051 ft 426 kts 268°
2026-05-07 20:03 32.77852 -115.93751 17584 ft 423 kts 268°
2026-05-07 20:04 32.77596 -115.97182 17118 ft 419 kts 268°
2026-05-07 20:04 32.77337 -116.00631 16647 ft 416 kts 268°
2026-05-07 20:04 32.77083 -116.04010 16200 ft 413 kts 268°
2026-05-07 20:04 32.76827 -116.07394 15764 ft 410 kts 268°
2026-05-07 20:05 32.76574 -116.10730 15329 ft 406 kts 268°
2026-05-07 20:05 32.76321 -116.14053 14908 ft 403 kts 268°
2026-05-07 20:05 32.76070 -116.17335 14493 ft 400 kts 268°
2026-05-07 20:05 32.75817 -116.20634 14059 ft 398 kts 268°
2026-05-07 20:06 32.75568 -116.23878 13623 ft 395 kts 267°
2026-05-07 20:06 32.75320 -116.27085 13198 ft 392 kts 267°
2026-05-07 20:06 32.75073 -116.30290 12846 ft 390 kts 267°
2026-05-07 20:06 32.74826 -116.33472 12423 ft 384 kts 267°
2026-05-07 20:07 32.74585 -116.36573 11991 ft 369 kts 267°
2026-05-07 20:07 32.74353 -116.39543 11597 ft 355 kts 267°
2026-05-07 20:07 32.74130 -116.42399 11213 ft 343 kts 267°
2026-05-07 20:07 32.73914 -116.45161 10829 ft 332 kts 268°
2026-05-07 20:08 32.73703 -116.47848 10458 ft 320 kts 267°
2026-05-07 20:08 32.73496 -116.50378 10101 ft 298 kts 266°
2026-05-07 20:08 32.73266 -116.52786 9846 ft 295 kts 266°
2026-05-07 20:08 32.73036 -116.55183 9495 ft 293 kts 266°
2026-05-07 20:09 32.72805 -116.57579 9172 ft 293 kts 266°
2026-05-07 20:09 32.72574 -116.59977 8853 ft 291 kts 266°
2026-05-07 20:09 32.72343 -116.62364 8534 ft 289 kts 266°
2026-05-07 20:10 32.71983 -116.66151 8019 ft 286 kts 266°
2026-05-07 20:10 32.71811 -116.68345 7713 ft 284 kts 266°
2026-05-07 20:10 32.71629 -116.70668 7393 ft 282 kts 266°
2026-05-07 20:10 32.71447 -116.72975 7079 ft 280 kts 266°
2026-05-07 20:11 32.71267 -116.75259 6804 ft 276 kts 266°
2026-05-07 20:11 32.71090 -116.77515 6525 ft 275 kts 266°
2026-05-07 20:11 32.70913 -116.79755 6222 ft 274 kts 266°
2026-05-07 20:11 32.70656 -116.82008 5908 ft 274 kts 254°
2026-05-07 20:12 32.70024 -116.84113 5841 ft 274 kts 251°
2026-05-07 20:12 32.69357 -116.86256 5577 ft 274 kts 251°
2026-05-07 20:12 32.68714 -116.88343 5320 ft 271 kts 252°
2026-05-07 20:12 32.68089 -116.90463 5064 ft 269 kts 252°
2026-05-07 20:13 32.67471 -116.92551 4779 ft 268 kts 252°
2026-05-07 20:13 32.67190 -116.94680 4479 ft 264 kts 281°
2026-05-07 20:13 32.67821 -116.96672 4196 ft 260 kts 302°
2026-05-07 20:13 32.68455 -116.98681 3842 ft 263 kts 277°
2026-05-07 20:14 32.68876 -117.00784 3460 ft 260 kts 295°
2026-05-07 20:14 32.69395 -117.02790 3065 ft 257 kts 284°
2026-05-07 20:14 32.69886 -117.04755 2633 ft 231 kts 286°
2026-05-07 20:14 32.70308 -117.06498 2347 ft 206 kts 286°
2026-05-07 20:15 32.70683 -117.08034 2097 ft 182 kts 286°
2026-05-07 20:15 32.71020 -117.09410 1779 ft 166 kts 285°
2026-05-07 20:15 32.71328 -117.10672 1497 ft 153 kts 285°
2026-05-07 20:15 32.71612 -117.11831 1256 ft 139 kts 285°
2026-05-07 20:16 32.71873 -117.12897 1042 ft 131 kts 284°
2026-05-07 20:16 32.72126 -117.13934 863 ft 132 kts 285°
2026-05-07 20:16 32.72380 -117.14973 670 ft 132 kts 284°
2026-05-07 20:16 32.72635 -117.16019 470 ft 131 kts 285°
2026-05-07 20:17 32.72891 -117.17068 272 ft 131 kts 285°
2026-05-07 20:17 32.73151 -117.18108 48 ft 129 kts 284°
2026-05-07 20:17 32.73379 -117.19058 24 ft 91 kts 286°
2026-05-07 20:17 32.73447 -117.19433 23 ft 29 kts 249°
2026-05-07 20:18 32.73407 -117.19586 22 ft 16 kts 266°
2026-05-07 20:18 32.73434 -117.19715 21 ft 16 kts 284°
2026-05-07 20:18 32.73465 -117.19851 20 ft 17 kts 284°
2026-05-07 20:18 32.73502 -117.19989 20 ft 17 kts 285°
2026-05-07 20:19 32.73529 -117.20134 20 ft 18 kts 280°
2026-05-07 20:19 32.73489 -117.20231 20 ft 7 kts 152°
2026-05-07 20:19 32.73445 -117.20193 20 ft 7 kts 168°
2026-05-07 20:19 32.73405 -117.20183 20 ft 0 kts 179°